Wind_Speed
80 78 79 78 80 79 74 75 77 78 82 83 75 74 78 75 73 69 72 75 79 79 83 88 91 94 95 95 99 105 109 111 111 110 109 115 111 97 95 92 90 77 67 53 41 38 34 36 35
84 84 83 84 86 84 76 70 69 73 81 82 78 74 75 78 82 78 79 84 84 85 90 94 96 97 97 101 109 111 117 116 113 110 109 95 92 92 89 75 56 35 21 23 18 20 21 20 19
85 82 87 87 88 86 85 78 69 73 76 77 76 73 75 80 84 82 82 88 90 92 93 93 96 97 102 108 112 113 119 117 110 101 96 93 84 77 61 47 31 21 12 14 22 24 23 25 26
86 85 86 87 85 86 82 81 82 79 80 74 75 73 75 80 81 81 82 87 91 92 94 98 103 108 108 110 110 116 115 115 109 101 85 78 66 49 33 23 20 15 15 20 25 24 23 22 22
85 83 87 82 81 83 86 80 82 88 90 82 76 75 82 84 85 88 92 92 95 96 97 103 108 107 107 110 111 113 111 109 90 82 67 57 44 30 25 22 22 22 23 27 28 30 28 26 25
89 94 83 82 90 90 87 88 93 87 87 82 78 81 82 89 91 90 94 93 96 101 102 105 103 104 104 106 109 106 90 72 70 59 49 37 28 25 23 23 26 27 30 33 32 31 27 28 29
89 91 92 86 82 83 83 84 84 84 83 86 81 83 88 90 90 91 94 94 97 100 101 100 100 102 107 108 88 84 74 61 52 42 35 27 30 28 26 28 30 30 34 36 34 33 32 30 26
103 86 87 86 79 80 83 78 78 77 79 78 84 87 89 91 88 91 93 95 97 99 97 101 103 101 96 82 74 60 56 46 38 32 31 31 31 32 31 34 36 37 39 41 40 37 35 32 30
96 101 95 87 79 81 83 84 81 80 75 75 80 78 86 86 88 89 90 91 93 96 95 94 92 87 81 66 57 53 44 42 38 37 37 37 38 38 39 40 42 44 45 45 43 39 36 35 32
81 90 91 78 78 77 80 77 79 70 71 74 77 80 87 87 89 88 91 93 95 92 93 92 85 72 71 61 51 45 38 39 41 39 41 45 45 45 50 46 47 48 47 47 46 43 40 36 34
81 87 90 89 89 84 82 80 79 80 82 81 85 89 86 89 91 90 88 91 93 94 90 83 72 59 55 53 42 38 36 41 46 46 47 47 48 49 50 50 47 49 50 49 48 44 41 40 39
77 78 83 88 90 83 84 87 87 88 87 86 90 94 95 88 91 92 88 86 87 84 78 65 56 49 43 45 44 47 47 45 50 54 54 56 55 53 54 51 49 49 48 48 46 47 46 45 42
74 71 73 77 76 78 83 87 92 95 92 87 86 87 85 86 89 91 87 79 74 65 59 47 41 35 44 53 47 44 48 50 50 54 57 58 56 54 52 52 52 49 49 51 52 52 52 51 47
74 75 73 74 74 76 84 87 86 87 88 87 80 83 88 84 78 79 77 74 61 44 37 31 28 35 40 45 43 46 52 54 54 56 55 55 54 55 54 51 49 51 53 54 54 53 52 51 49
76 74 71 78 82 85 87 86 87 86 86 87 89 88 87 80 68 72 70 51 46 32 34 25 24 24 32 49 46 54 58 53 45 48 53 58 54 53 52 53 55 55 56 57 57 55 54 52 52
68 70 76 76 78 79 80 83 84 84 83 82 81 78 77 77 68 52 46 39 35 32 33 29 36 41 39 53 49 52 54 52 55 49 48 56 61 59 59 58 58 61 61 59 61 59 58 58 59
48 54 61 71 76 71 66 65 62 60 59 59 60 59 55 51 45 38 43 38 34 33 35 29 29 43 46 47 54 54 58 58 52 53 57 55 58 60 61 63 66 65 64 62 63 65 67 66 65
43 44 44 50 53 54 52 51 49 49 49 51 50 48 41 35 35 34 38 40 37 33 31 31 33 38 40 49 54 57 55 52 56 60 61 61 62 65 68 68 68 68 65 66 70 71 72 72 73
39 38 37 42 40 40 41 39 43 44 42 44 44 39 36 32 34 33 36 37 35 37 35 36 41 43 46 50 56 60 58 59 60 65 63 62 63 66 70 72 73 71 73 77 79 79 79 81 84
29 31 32 33 33 35 38 36 41 40 38 37 35 35 34 34 35 35 34 34 38 42 46 43 45 50 53 57 59 59 62 64 68 68 67 68 71 72 71 73 76 78 79 83 86 87 88 90 95
32 31 28 30 31 33 35 34 31 34 33 32 35 35 34 35 35 37 37 39 40 41 46 50 52 54 56 58 57 61 65 68 70 71 73 75 77 79 82 84 85 86 88 91 93 97 100 102 105
24 23 25 26 28 30 34 29 30 32 35 31 34 37 37 36 37 43 41 39 41 46 49 51 55 60 60 57 60 63 66 70 74 76 78 81 84 88 92 94 96 98 101 104 108 112 114 115 114
22 20 23 25 28 30 36 32 28 29 27 33 37 34 37 37 38 40 43 46 49 52 54 57 59 61 60 61 65 66 72 76 79 82 85 87 91 95 99 101 104 108 112 116 122 124 125 124 124
22 24 24 25 27 31 33 35 32 26 27 30 36 39 45 42 42 38 38 44 51 56 59 60 59 61 61 65 67 70 77 83 87 90 92 95 100 104 108 110 113 118 122 126 130 129 127 125 123
13 16 19 23 26 29 31 35 31 31 31 31 32 36 38 39 38 38 41 44 48 53 56 60 63 67 69 71 71 76 81 85 89 93 97 101 107 111 114 119 126 131 133 135 135 131 127 121 117
4 6 9 11 16 22 24 26 29 28 28 26 29 31 34 38 41 44 44 47 49 50 54 58 61 67 73 78 82 86 90 93 98 102 107 110 114 118 124 131 134 134 136 134 129 125 119 112 108
10 11 13 15 18 22 19 22 23 27 28 29 29 33 35 41 39 44 45 49 53 57 58 61 66 71 76 81 86 92 97 101 104 109 115 118 122 127 133 138 138 134 128 124 120 116 112 108 107
12 13 16 18 22 28 29 25 31 31 33 35 35 36 41 45 47 47 50 54 57 59 63 67 72 78 82 86 91 97 102 106 110 114 120 126 130 131 136 137 132 126 120 117 111 109 107 105 103
12 16 16 16 20 25 35 31 31 35 36 39 42 43 46 48 51 53 55 56 59 63 66 72 78 82 85 92 98 103 106 110 117 123 130 134 136 137 136 133 126 120 114 110 107 104 101 95 89
15 17 19 24 25 28 34 43 36 37 39 40 42 43 47 48 53 56 57 60 63 67 71 75 81 87 92 97 102 107 113 119 125 130 137 135 130 127 124 123 118 115 111 107 102 97 92 87 81
Wind_Direction
229 235 237 240 244 248 252 255 260 262 263 265 266 270 272 272 276 275 279 283 282 284 286 287 287 290 293 295 298 300 300 301 302 301 302 299 300 300 308 310 313 310 306 307 308 310 311 303 295
233 231 237 242 243 248 254 257 258 262 262 265 266 268 271 271 271 274 278 280 283 285 286 288 290 292 293 298 299 298 300 302 302 300 299 299 304 307 309 310 307 309 322 324 347 5 4 1 359
234 239 242 237 242 246 248 254 256 259 260 262 266 266 268 271 275 277 278 281 283 285 288 290 292 296 296 297 297 298 301 303 301 299 299 305 309 310 305 298 294 301 324 339 358 1 357 360 1
235 238 240 241 246 248 252 254 257 258 261 265 267 267 267 271 275 277 281 282 286 288 289 292 293 293 294 296 298 299 301 299 294 302 306 308 309 301 293 293 292 313 316 333 346 345 346 353 354
233 235 241 245 247 247 249 250 254 256 260 264 271 272 272 275 278 280 280 284 287 290 291 291 291 293 294 293 296 297 297 297 301 303 306 304 300 287 284 290 295 308 316 325 331 334 335 341 341
234 237 239 242 247 248 248 250 253 259 263 266 267 271 273 272 276 279 281 285 287 286 289 291 291 291 292 294 296 295 297 299 305 304 297 293 287 290 299 302 306 312 320 321 326 328 326 329 333
235 237 241 241 245 248 251 252 258 258 261 263 265 269 271 274 276 278 281 283 287 287 289 289 290 291 292 297 294 297 301 303 302 294 291 295 293 295 301 301 302 305 309 313 316 318 317 317 320
235 236 240 240 243 246 249 252 255 258 258 260 266 267 271 274 279 279 280 282 285 285 286 287 292 291 292 294 296 304 303 299 294 289 291 294 295 296 300 300 301 302 302 306 309 310 311 310 311
234 239 246 243 247 247 250 252 253 258 261 261 264 264 271 273 275 277 279 280 282 284 287 291 291 291 293 296 298 296 292 292 288 287 290 294 295 296 299 299 298 300 300 299 301 306 307 306 303
237 241 243 244 246 248 250 253 256 255 255 258 260 264 269 272 275 278 279 281 284 287 289 290 290 292 294 294 293 291 293 296 294 292 291 290 290 294 299 298 297 296 295 294 297 301 302 301 300
233 236 240 245 247 251 254 255 256 254 255 258 261 265 270 272 276 279 279 282 284 284 288 289 291 293 298 297 293 293 289 291 292 293 295 294 294 293 294 293 294 296 295 296 298 298 297 297 296
232 238 244 249 249 249 250 254 257 257 261 261 262 266 272 275 275 280 283 283 283 284 287 289 291 297 297 292 290 293 292 291 292 293 293 292 293 298 296 296 297 298 296 295 295 296 297 297 294
230 235 240 246 247 250 252 253 256 257 259 264 266 271 275 276 275 278 281 284 282 282 288 291 300 314 306 299 289 286 289 294 295 296 294 293 293 295 295 297 297 296 294 294 294 293 293 294 294
234 238 244 245 246 249 253 254 258 262 263 265 265 267 272 276 282 281 282 280 280 283 288 293 310 302 295 300 292 289 295 296 295 295 296 294 296 296 296 297 296 295 295 294 293 294 295 294 294
237 240 243 247 248 251 254 255 258 260 265 268 270 272 273 279 284 288 283 276 274 279 278 278 292 255 279 289 287 290 298 297 295 298 295 295 296 296 296 294 294 293 292 292 293 295 296 292 290
238 242 246 249 252 255 258 261 263 265 267 271 274 277 278 276 279 283 271 271 279 277 272 268 248 270 265 283 286 293 297 296 298 298 297 299 299 298 296 296 294 296 298 297 296 296 294 291 288
245 248 251 253 254 259 260 262 264 267 270 273 274 275 274 274 269 267 273 277 275 275 280 281 269 263 275 285 292 292 292 293 295 297 297 297 296 296 294 296 296 296 295 292 292 293 292 288 286
249 252 255 255 256 258 259 263 268 270 270 271 271 270 267 268 263 263 268 274 281 285 287 289 283 278 281 286 291 291 292 293 297 302 302 302 300 299 296 295 294 294 291 290 289 288 288 287 285
250 254 257 257 261 264 269 270 265 268 265 263 264 261 261 258 268 267 271 281 287 292 286 286 280 282 289 291 294 296 296 293 296 299 298 295 295 294 294 292 293 291 286 288 289 288 287 286 285
256 261 255 265 260 264 265 263 257 261 257 259 259 260 264 264 266 274 278 285 291 294 293 290 287 287 291 292 295 297 295 294 295 297 296 292 293 294 294 292 290 289 287 285 286 287 288 288 286
255 257 255 252 256 258 257 255 256 258 255 260 268 269 271 278 284 288 290 291 291 289 288 289 290 291 292 296 297 296 297 297 299 299 298 296 293 292 291 291 291 292 293 293 292 290 290 292 291
252 257 256 255 259 261 260 259 258 265 271 272 266 272 276 279 286 288 290 290 288 285 285 288 292 293 295 296 298 299 299 300 299 299 298 297 296 297 297 297 298 297 296 295 295 297 297 296 293
263 260 262 264 263 260 263 268 260 264 279 275 279 280 286 284 286 289 294 295 294 293 292 293 294 294 295 298 300 300 302 302 300 299 299 299 299 298 297 299 298 298 299 299 300 299 297 295 294
259 265 268 269 269 271 274 271 273 276 266 256 268 274 275 285 291 291 287 288 291 292 294 294 293 293 294 296 297 299 301 304 304 302 301 301 300 300 300 299 299 299 299 299 300 299 297 295 293
273 274 274 270 269 274 280 286 298 289 277 269 274 278 281 284 287 286 287 291 293 296 295 296 297 299 299 299 296 295 297 298 298 299 299 300 300 300 300 300 301 300 300 299 299 297 295 293 293
0 324 312 301 289 287 310 312 315 308 301 292 281 277 285 293 290 293 294 293 291 291 295 296 298 300 302 303 302 302 301 302 303 302 301 301 300 299 300 301 302 301 300 299 297 295 295 294 293
343 331 323 318 311 308 312 310 308 305 306 304 301 293 288 285 290 294 295 294 298 298 298 299 299 300 301 301 301 301 303 303 302 300 300 300 299 299 301 304 303 301 299 299 298 298 297 297 296
327 328 329 328 326 322 316 316 314 310 308 306 303 301 297 297 296 296 293 297 297 296 297 298 299 299 301 302 304 303 303 302 300 301 302 303 303 303 304 303 302 300 300 299 299 298 298 296 295
314 322 312 310 315 319 318 315 309 308 304 303 299 299 295 296 297 296 297 300 301 301 301 300 301 302 303 303 303 302 302 303 303 303 304 305 305 306 304 302 301 302 302 302 301 300 298 298 297
297 285 299 311 317 322 323 323 323 314 306 299 299 299 299 298 300 303 304 303 301 299 300 302 303 304 303 303 303 304 305 304 304 304 305 305 304 304 303 303 304 304 304 303 302 300 299 299 298
Height
10853 10859 10862 10863 10863 10857 10867 10871 10880 10881 10869 10872 10882 10876 10874 10877 10876 10878 10874 10871 10866 10869 10864 10860 10856 10852 10849 10843 10838 10830 10825 10819 10811 10802 10792 10784 10775 10765 10756 10749 10737 10728 10721 10713 10708 10699 10691 10687 10685
10842 10845 10850 10851 10851 10851 10860 10865 10871 10868 10858 10863 10872 10875 10868 10864 10858 10872 10871 10856 10856 10857 10852 10849 10845 10839 10835 10830 10824 10816 10808 10803 10794 10785 10776 10767 10759 10752 10742 10732 10725 10718 10713 10711 10705 10697 10692 10686 10679
10832 10837 10839 10841 10837 10848 10849 10856 10864 10855 10849 10854 10866 10871 10860 10849 10850 10861 10860 10844 10849 10847 10841 10836 10833 10827 10821 10816 10809 10801 10792 10785 10777 10770 10762 10754 10746 10738 10731 10724 10720 10715 10713 10710 10703 10697 10693 10686 10679
10824 10825 10823 10829 10834 10837 10844 10849 10849 10843 10838 10853 10853 10859 10851 10844 10844 10850 10842 10839 10837 10835 10830 10825 10821 10815 10810 10802 10794 10786 10778 10769 10760 10756 10747 10742 10733 10727 10723 10717 10715 10711 10709 10706 10701 10698 10693 10686 10679
10813 10808 10814 10826 10826 10824 10838 10837 10836 10830 10833 10846 10849 10839 10840 10836 10835 10836 10830 10834 10827 10823 10820 10814 10808 10802 10796 10789 10782 10774 10765 10755 10745 10741 10734 10729 10723 10720 10718 10712 10710 10706 10705 10701 10698 10694 10690 10684 10677
10800 10800 10807 10816 10815 10820 10825 10825 10820 10828 10821 10839 10839 10834 10826 10826 10828 10830 10820 10825 10819 10812 10808 10802 10796 10790 10784 10776 10770 10760 10751 10742 10736 10731 10726 10721 10716 10714 10711 10707 10705 10701 10698 10695 10692 10689 10686 10682 10675
10789 10794 10803 10801 10805 10813 10811 10810 10815 10819 10816 10820 10832 10819 10816 10818 10819 10818 10814 10812 10807 10802 10796 10791 10785 10779 10771 10763 10753 10745 10739 10731 10727 10723 10717 10713 10710 10708 10703 10701 10699 10697 10693 10690 10688 10683 10679 10677 10673
10777 10789 10787 10792 10797 10803 10797 10801 10806 10808 10805 10815 10809 10806 10808 10808 10807 10807 10805 10800 10796 10792 10786 10779 10774 10764 10758 10749 10742 10736 10731 10724 10721 10714 10710 10709 10702 10702 10697 10694 10691 10690 10686 10683 10682 10679 10674 10673 10668
10774 10777 10777 10781 10790 10790 10792 10792 10796 10797 10794 10798 10795 10798 10796 10796 10797 10795 10793 10790 10784 10779 10775 10768 10760 10749 10744 10740 10733 10728 10722 10721 10718 10710 10704 10702 10696 10694 10689 10688 10685 10682 10678 10675 10674 10672 10669 10667 10664
10758 10764 10765 10772 10778 10781 10781 10782 10784 10789 10788 10788 10785 10788 10783 10786 10784 10783 10780 10778 10772 10766 10760 10754 10745 10737 10737 10729 10723 10717 10711 10709 10707 10705 10699 10696 10691 10686 10680 10676 10673 10671 10669 10666 10664 10663 10661 10659 10657
10749 10751 10755 10762 10768 10770 10774 10773 10775 10776 10772 10779 10776 10774 10774 10774 10772 10769 10767 10764 10762 10752 10747 10740 10738 10734 10725 10716 10714 10711 10705 10701 10699 10695 10691 10689 10683 10678 10674 10670 10665 10662 10659 10657 10655 10654 10652 10650 10648
10739 10744 10749 10750 10756 10762 10761 10760 10764 10763 10766 10767 10766 10765 10765 10762 10758 10757 10755 10751 10745 10737 10734 10732 10727 10724 10718 10712 10708 10705 10700 10694 10688 10683 10680 10677 10672 10668 10665 10662 10658 10654 10650 10647 10645 10642 10640 10639 10637
10731 10735 10737 10741 10746 10749 10750 10751 10753 10754 10755 10754 10755 10755 10753 10748 10746 10744 10742 10739 10731 10727 10722 10721 10721 10713 10705 10701 10695 10693 10691 10687 10680 10675 10671 10667 10661 10657 10655 10652 10648 10645 10641 10638 10635 10633 10631 10629 10627
10719 10726 10729 10731 10734 10738 10739 10742 10743 10741 10742 10743 10744 10740 10739 10736 10734 10732 10730 10726 10720 10718 10715 10708 10709 10701 10692 10688 10688 10682 10680 10679 10673 10665 10661 10654 10653 10647 10646 10641 10638 10635 10631 10629 10625 10622 10620 10617 10615
10713 10717 10720 10722 10724 10726 10728 10732 10730 10729 10725 10729 10727 10729 10725 10726 10723 10718 10718 10712 10711 10710 10710 10710 10701 10685 10679 10674 10678 10669 10666 10670 10665 10659 10650 10644 10643 10636 10634 10630 10626 10622 10618 10616 10613 10610 10607 10604 10601
10706 10710 10710 10713 10713 10715 10719 10720 10715 10715 10714 10713 10712 10712 10712 10713 10713 10706 10702 10702 10702 10704 10699 10699 10692 10682 10671 10663 10666 10663 10657 10654 10651 10650 10644 10634 10625 10621 10618 10615 10612 10608 10603 10598 10594 10592 10590 10588 10586
10701 10702 10703 10705 10705 10706 10709 10705 10705 10703 10702 10702 10700 10702 10702 10705 10704 10701 10690 10692 10695 10692 10691 10689 10680 10672 10665 10660 10655 10655 10649 10645 10641 10637 10632 10629 10621 10613 10607 10604 10597 10592 10587 10581 10578 10575 10573 10571 10568
10690 10692 10696 10692 10694 10694 10696 10696 10695 10694 10693 10691 10692 10697 10693 10695 10695 10692 10688 10685 10681 10682 10681 10677 10670 10663 10662 10656 10649 10644 10639 10634 10629 10623 10618 10612 10605 10599 10593 10589 10582 10578 10572 10564 10560 10558 10554 10550 10547
10684 10687 10688 10683 10686 10684 10685 10690 10683 10687 10686 10682 10686 10687 10686 10686 10684 10685 10680 10675 10674 10670 10672 10669 10660 10655 10653 10648 10641 10632 10626 10621 10618 10611 10605 10599 10592 10585 10576 10569 10567 10561 10553 10547 10541 10539 10535 10528 10520
10678 10680 10678 10678 10678 10678 10677 10684 10677 10681 10679 10675 10676 10678 10678 10680 10678 10674 10671 10669 10666 10659 10652 10651 10649 10644 10641 10636 10630 10622 10613 10607 10599 10592 10587 10582 10576 10568 10560 10553 10546 10539 10534 10526 10519 10513 10509 10503 10492
10671 10671 10674 10670 10673 10673 10670 10677 10675 10671 10673 10673 10671 10671 10671 10669 10667 10662 10661 10657 10654 10651 10646 10640 10635 10631 10628 10624 10617 10607 10599 10590 10583 10574 10567 10560 10551 10545 10539 10530 10524 10517 10510 10503 10495 10484 10476 10473 10463
10665 10668 10668 10668 10668 10668 10666 10672 10671 10669 10667 10672 10667 10664 10663 10661 10659 10652 10651 10648 10644 10640 10636 10632 10625 10617 10613 10610 10602 10592 10584 10575 10565 10558 10548 10537 10528 10519 10509 10501 10494 10485 10476 10467 10458 10451 10443 10434 10427
10661 10664 10664 10665 10664 10665 10659 10664 10667 10668 10668 10662 10656 10656 10654 10654 10652 10647 10640 10634 10629 10624 10620 10618 10615 10606 10599 10592 10584 10575 10566 10557 10548 10537 10527 10517 10506 10494 10482 10474 10464 10453 10441 10429 10421 10411 10401 10393 10385
10659 10659 10659 10659 10659 10656 10653 10652 10657 10661 10659 10659 10653 10648 10645 10644 10642 10641 10637 10629 10621 10614 10609 10604 10598 10594 10590 10582 10573 10562 10549 10537 10527 10515 10503 10492 10478 10464 10453 10443 10433 10422 10410 10398 10385 10373 10363 10352 10340
10654 10654 10653 10653 10651 10648 10645 10644 10647 10645 10645 10645 10643 10640 10638 10635 10633 10630 10628 10623 10615 10603 10596 10589 10581 10574 10567 10564 10560 10550 10539 10528 10515 10500 10486 10473 10457 10441 10428 10414 10402 10388 10372 10358 10344 10331 10317 10308 10299
10651 10650 10649 10648 10646 10643 10643 10641 10636 10634 10633 10635 10633 10633 10629 10623 10617 10616 10615 10608 10603 10598 10591 10582 10573 10564 10553 10541 10530 10521 10511 10500 10489 10473 10457 10444 10430 10414 10400 10383 10367 10350 10333 10316 10302 10290 10277 10268 10258
10649 10648 10646 10645 10642 10640 10642 10639 10636 10631 10629 10626 10625 10623 10621 10612 10613 10606 10601 10595 10589 10581 10575 10568 10558 10550 10539 10527 10514 10501 10490 10479 10467 10450 10435 10420 10403 10386 10367 10345 10325 10307 10291 10277 10263 10251 10239 10229 10218
10646 10644 10642 10640 10636 10632 10631 10634 10629 10628 10623 10619 10617 10613 10605 10599 10598 10597 10590 10585 10578 10570 10562 10554 10544 10532 10521 10510 10496 10482 10467 10455 10440 10424 10407 10389 10369 10351 10334 10309 10289 10271 10256 10241 10228 10217 10204 10193 10183
10642 10640 10639 10638 10635 10631 10621 10625 10624 10621 10616 10610 10604 10602 10596 10591 10584 10579 10576 10571 10563 10554 10545 10535 10525 10514 10503 10489 10473 10460 10447 10431 10412 10392 10371 10354 10335 10313 10292 10267 10250 10234 10219 10207 10194 10181 10168 10160 10152
10639 10637 10634 10631 10629 10627 10621 10611 10615 10609 10605 10601 10598 10593 10585 10580 10573 10565 10560 10553 10545 10537 10530 10521 10508 10495 10483 10469 10453 10437 10419 10405 10387 10363 10341 10321 10303 10280 10254 10230 10214 10199 10186 10174 10161 10147 10137 10130 10122